Regional Weather Roundup
Issued by NWS

Home | Current Version | Previous Version | Text Only | Print | Product List | Glossary On
Versions: 1 2 3 4 5 6 7 8 9 10 11 12 13 14 15 16 17 18 19 20 21 22 23 24 25 26 27 28 29 30 31 32 33 34 35 36 37 38 39 40 41 42 43 44 45 46 47 48 49 50
000
ASUS43 KOAX 252202
RWRNE

WEATHER ROUNDUP FOR NEBRASKA
NATIONAL WEATHER SERVICE OMAHA NE
500 PM CDT SAT MAR 25 2017

NOTES: SATELLITE DATA IS BEING USED TO AUGMENT CLOUD COVER ABOVE
       12000 FEET.
       "FAIR" INDICATES FEW OR NO CLOUDS BELOW 12,000 FEET WITH NO
       SIGNIFICANT WEATHER AND/OR OBSTRUCTIONS TO VISIBILITY.

  * THESE STATIONS DO NOT REPORT WEATHER SUCH AS RAIN...SNOW OR FOG.

NEZ001>004-019>022-054>056-252300-
NEBRASKA PANHANDLE

CITY           SKY/WX    TMP DP  RH WIND       PRES   REMARKS
SCOTTSBLUFF    CLOUDY    67  27  22 SE5       29.82F
ALLIANCE       CLOUDY    64  28  25 S8G23     29.84F
CHADRON        MOSUNNY   68  29  23 SW6       29.81F
KIMBALL        CLOUDY    62  33  34 S10       29.88F
SIDNEY         CLOUDY    62  32  32 SW6       29.88F
$$

NEZ057>060-069>072-079>082-252300-
SOUTHWEST NEBRASKA

CITY           SKY/WX    TMP DP  RH WIND       PRES   REMARKS
NORTH PLATTE   SUNNY     64  21  19 CALM      29.88F
IMPERIAL       SUNNY     59  24  26 VRB3      29.89F
LEXINGTON      PTSUNNY   52  43  72 E13       29.91F
MCCOOK         SUNNY     64  34  32 NE9       29.88F
OGALLALA       SUNNY     62  24  24 SE3       29.89F
$$

NEZ005>010-023>029-035>040-094-252300-
NORTH CENTRAL NEBRASKA

CITY           SKY/WX    TMP DP  RH WIND       PRES   REMARKS
VALENTINE      SUNNY     63  17  17 SE10G18   29.88F
AINSWORTH      SUNNY     57  35  42 E8        29.91F
BROKEN BOW     SUNNY     51  43  74 E7        29.91F
O`NEILL        CLOUDY    41  38  89 E6        29.97F
ORD            CLOUDY    43  38  82 NE7       29.94F
THEDFORD       SUNNY     64  25  23 SE6       29.89F
$$

NEZ041-046>049-061>064-073>077-083>087-252300-
SOUTH CENTRAL NEBRASKA

CITY           SKY/WX    TMP DP  RH WIND       PRES   REMARKS
GRAND ISLAND   CLOUDY    40  40 100 N9        29.95F FOG     WCI  34
AURORA         CLOUDY    39  38  99 N10       29.95F FOG     WCI  32
HASTINGS       CLOUDY    41  38  89 N10       29.94F
HEBRON         CLOUDY    40  38  93 N10       29.94S FOG     WCI  34
HOLDREGE       CLOUDY    44  40  87 NE9       29.93F
KEARNEY *      CLOUDY    43  37  81 NE7       29.94F
YORK           CLOUDY    39  39 100 N14       29.95S FOG     WCI  31
$$

NEZ011>018-030>034-042>045-252300-
NORTHEAST NEBRASKA

CITY           SKY/WX    TMP DP  RH WIND       PRES   REMARKS
NORFOLK        CLOUDY    39  37  92 N10       29.96S FOG     WCI  32
ALBION         CLOUDY    42  38  86 N8        29.96F
BLAIR          LGT RAIN  41  40  95 N9        29.92S
FREMONT        CLOUDY    40  40 100 N5        29.94F FOG
TEKAMAH        LGT RAIN  41  38  89 N13       29.95S
WAYNE          CLOUDY    40  40  98 NE10      29.96S WCI  34
$$

NEZ050>053-065>068-078-088>093-252300-
SOUTHEAST NEBRASKA

CITY           SKY/WX    TMP DP  RH WIND       PRES   REMARKS
LINCOLN        CLOUDY    41  39  93 N16       29.94F
OMAHA EPPLEY   CLOUDY    43  38  82 NE15      29.92F
BEATRICE       LGT RAIN  43  41  91 N10       29.92S
FALLS CITY     LGT RAIN  44  41  89 N9        29.89S FOG
NEBRASKA CITY  CLOUDY    43  42  99 NE9       29.90S
PLATTSMOUTH    CLOUDY    43  39  85 N13       29.90F
$$

NEZ044-045-051>053-067-252300-
OMAHA AREA

CITY           SKY/WX    TMP DP  RH WIND       PRES   REMARKS
OMAHA EPPLEY   CLOUDY    43  38  82 NE15      29.92F
BLAIR          LGT RAIN  41  40  95 N9        29.92S
FREMONT        CLOUDY    40  40 100 N5        29.94F FOG
MILLARD        CLOUDY    44  41  88 N9        29.93S
OFFUTT AFB     CLOUDY    43  39  85 N9        29.91S
PLATTSMOUTH    CLOUDY    43  39  85 N13       29.90F
WAHOO          CLOUDY    40  39  93 N14       29.94S FOG     WCI  33
$$




USA.gov is the U.S. government's official web portal to all federal, state and local government web resources and services.